Location: *
(50.2903°S, 172.5375°W)
Time: 10:40:30
(UTC+00:00)

Cosmos 1959 Rocket - Pass Details

Date: 17 November 2019
Orbit: 948 x 996 km, 83.0° (Epoch: 05 December)

Event Time Altitude Azimuth Distance (km) Brightness Sun altitude
Rises 12:55:03 0° 191° (S) 3,663 8.4 -17.3°
Reaches altitude 10° 12:57:34 10° 191° (SSW) 2,712 7.6 -17.1°
Maximum altitude 13:03:46 81° 276° (W) 982 4.4 -16.7°
Enters shadow 13:08:14 20° 2° (N) 2,069 5.7 -16.4°
